Regional Weather Roundup
Issued by NWS Charleston, SC

Current Version | Previous Version | Graphics & Text | Print | Product List | Glossary On
Versions: 1 2 3 4 5 6 7 8 9 10 11 12 13 14 15 16 17 18 19 20 21 22 23 24 25 26 27 28 29 30 31 32 33 34 35 36 37 38 39 40 41 42 43 44 45 46 47 48 49 50
000 ASUS42 KCHS 232028 RWRCHS REGIONAL WEATHER ROUNDUP NATIONAL WEATHER SERVICE CHARLESTON SC 400 PM EDT TUE AUG 23 2016 NOTE: "FAIR" INDICATES FEW OR NO CLOUDS BELOW 12,000 FEET WITH NO SIGNIFICANT WEATHER AND/OR OBSTRUCTIONS TO VISIBILITY. NOT ALL STATIONS ARE QUALITY CONTROLLED. USE DATA WITH CAUTION... ESPECIALLY DEWPOINT OBSERVATIONS. SCZ027-030-031-034>040-042>050-232100- ...SOUTHEAST SOUTH CAROLINA... CITY SKY/WX TMP DP RH WIND PRES REMARKS N CHARLESTON MOSUNNY 90 67 46 E14G20 30.19F HX 93 WATERFRONT PRK N/A 87 73 62 E15 30.19F HX 94 MOUNT PLEASANT FAIR 88 72 58 E9G21 30.20S HX 94 JOHNS ISLAND FAIR 88 72 58 E16 30.19F HX 94 PINOPOLIS N/A 88 68 51 E6 30.12F HX 91 MONCKS CORNER MOCLDY 86 68 54 SE5 30.19S SUMMERVILLE FAIR 90 70 51 E5 30.19F HX 95 BEAUFORT MCAS MOSUNNY 87 73 62 SE13G20 30.19F HX 94 BEAUFORT ARPT FAIR 88 72 58 E10G20 30.19S HX 94 HILTON HEAD IS PTSUNNY 91 73 55 NE7 30.20F HX 100 WALTERBORO PTCLDY 91 70 49 E10 30.19S HX 97 ALLENDALE MOCLDY 91 68 46 VRB6 30.17S HX 95 ...SOUTHERN MIDLANDS AND PEE DEE... CITY SKY/WX TMP DP RH WIND PRES REMARKS GEORGETOWN CLOUDY 84 68 58 E12G18 30.22F KINGSTREE CLOUDY 86 63 45 E7 30.20F ORANGEBURG PTSUNNY 91 67 44 NE8 30.19F HX 94 BARNWELL NOT AVBL AIKEN FAIR 90 64 43 E7 30.23F HX 91 MANNING FAIR 86 68 54 NE3 30.20S COLUMBIA MOSUNNY 92 65 40 NE7 30.19F HX 94 SUMTER MOSUNNY 92 64 39 E8 30.18F HX 93 FLORENCE CLOUDY 89 64 43 E8 30.21F HX 90 MYRTLE BEACH NOT AVBL N MYRTLE BEACH SUNNY 86 66 51 E15G22 30.22F $$ GAZ063-065-086>088-099>101-113>116-118-119-134>141-150-232100- ...SOUTHEAST GEORGIA... CITY SKY/WX TMP DP RH WIND PRES REMARKS SAVANNAH ARPT CLOUDY 85 72 65 SE13 30.19F HX 91 HUNTER AAF CLOUDY 85 77 76 E8 30.17S HX 95 FORT STEWART CLOUDY 75 73 94 CALM 30.16 STATESBORO CLOUDY 87 75 66 SE6 30.18R HX 96 SYLVANIA PTCLDY N/A N/A N/A S5 30.19S CLAXTON RAIN 79 78 96 E3 30.18F ...CSRA...CENTRAL AND FAR SOUTHEAST GEORGIA... CITY SKY/WX TMP DP RH WIND PRES REMARKS THOMSON PTSUNNY 90 73 57 MISG 30.23F HX 97 AUGUSTA-BUSH PTSUNNY 93 67 42 VRB6 30.17F HX 96 AUGUSTA-DANIEL MOSUNNY 91 66 43 SE7 30.19F HX 93 SWAINSBORO TSTM 81 77 89 SW8 30.19R VIDALIA CLOUDY 79 79 100 E3 30.18F THUNDER EASTMAN FAIR 80 78 92 SE3 30.21R HAZLEHURST LGT RAIN 79 79 100 CALM 30.18F ALMA CLOUDY 79 75 87 NW6 30.18F WAYCROSS N/A 82 80 95 CALM 30.17F HX 93 JESUP LGT RAIN 79 79 100 N8 30.20S BAXLEY FAIR 81 81 100 SW3 30.18F THUNDER HX 91 BRUNSWICK PTSUNNY 88 79 74 E15 30.18S HX 102 SAINT SIMONS MOSUNNY 90 77 65 E14 30.17S HX 103 $$ SCZ027-028-034-036>038-045-046-048>050-GAZ119-141-232100- ...LAKE AND SUPPLEMENTAL COASTAL OBSERVATIONS... STATION/POSITION TIME TEMP WIND PRES WAVE SWELL AIR SEA DIR/SP/G HT/PER HT/PER/DIR (UTC) (F) (DEG/KT/KT) (MB) (FT/S) (FT/S/D) WINYAH BAY 1900 83 90/ 12 1023.0F LAKE MURRAY 1900 88 80/ 6/ 8 1022.7F ACE BASIN NERRS 1900 86 100/ 4 1023.0S FORT PULASKI 2000 85 87 70/ 16/ 20 1022.9S SAPELO ISLAND 2000 89 80/ 11 1022.0S $$ ANZ835-935-AMZ111-154-330-350-352-354-370-450-454-472-232100- ...C-MAN AND BUOY OBSERVATIONS... STATION/POSITION TIME TEMP WIND PRES WAVE SWELL AIR SEA DIR/SP/G HT/PER HT/PER/DIR (UTC) (F) (DEG/KT/KT) (MB) (FT/S) (FT/S/D) BUOY 41004 1950 83 85 70/ 16/ 19 1022.0F 4/ 4 2/120/ 8 BUOY 41008 1950 85 85 70/ 14/ 16 1021.5F 2/ 4 FOLLY BEACH CMAN 2000 85 80/ 14/ 17 1023.0F CAPERS NEARSHORE 2008 84 86 90/ 16/ 19 1022.2F FRIPP NEARSHORE 2008 85 87 90/ 16/ 21 1021.6F STATION/POSITION TIME TEMP WIND PRES WAVE SWELL AIR SEA DIR/SP/G HT/PER HT/PER/DIR (UTC) (F) (DEG/KT/KT) (MB) (FT/S) (FT/S/D) 5E ST. MARYS GA 2001 84 N/A 2/13 FRYING PAN BUOY 2000 83 85 50/ 14/ 19 1022.8F BUOY 41025 1950 80 85 30/ 17/ 19 1024.0F 4/ 8 2/ 50/ 8 CAPE LOOKOUT NC 2000 81 50/ 14/ 16 1023.8F BUOY 41002 1950 83 85 50/ 14/ 17 1021.0F 4/ 5 2/ 30/ 7 BUOY 41010 NOT AVBL ST AUGUSTINE FL 2000 84 87 50/ 12/ 13 1021.7S $$

USA.gov is the U.S. government's official web portal to all federal, state and local government web resources and services.